TimeCDT,TemperatureF,Dew PointF,Humidity,Sea Level PressureIn,VisibilityMPH,Wind Direction,Wind SpeedMPH,Gust SpeedMPH,PrecipitationIn,Events,Conditions,WindDirDegrees,DateUTC
12:53 AM,70.0,63.0,78,30.13,9.0,SE,6.9,-,N/A,,Clear,140,2013-09-18 05:53:00
1:53 AM,70.0,62.1,76,30.14,10.0,SE,5.8,-,N/A,,Clear,130,2013-09-18 06:53:00
2:53 AM,66.9,62.1,84,30.13,10.0,ESE,3.5,-,N/A,,Clear,120,2013-09-18 07:53:00
3:53 AM,66.9,61.0,81,30.13,10.0,ESE,4.6,-,N/A,,Clear,120,2013-09-18 08:53:00
4:53 AM,64.9,61.0,87,30.14,10.0,SE,3.5,-,N/A,,Clear,130,2013-09-18 09:53:00
5:53 AM,64.0,61.0,90,30.15,10.0,SSE,4.6,-,N/A,,Clear,150,2013-09-18 10:53:00
6:53 AM,66.0,61.0,84,30.17,10.0,SE,5.8,-,N/A,,Partly Cloudy,140,2013-09-18 11:53:00
7:16 AM,66.2,60.8,83,30.19,9.0,SE,4.6,-,N/A,,Overcast,140,2013-09-18 12:16:00
7:53 AM,68.0,62.1,81,30.17,10.0,Calm,Calm,-,N/A,,Scattered Clouds,0,2013-09-18 12:53:00
8:11 AM,69.8,60.8,73,30.19,10.0,SE,5.8,-,N/A,,Mostly Cloudy,130,2013-09-18 13:11:00
8:53 AM,70.0,61.0,73,30.19,10.0,SE,5.8,-,N/A,,Overcast,140,2013-09-18 13:53:00
9:53 AM,72.0,62.1,71,30.19,10.0,SSE,10.4,-,N/A,,Overcast,150,2013-09-18 14:53:00
10:53 AM,73.0,63.0,71,30.18,10.0,SE,10.4,-,N/A,,Overcast,140,2013-09-18 15:53:00
11:01 AM,73.4,64.4,73,30.20,10.0,SE,6.9,-,N/A,,Overcast,140,2013-09-18 16:01:00
11:53 AM,77.0,64.9,66,30.17,10.0,South,6.9,-,N/A,,Overcast,170,2013-09-18 16:53:00
12:53 PM,79.0,66.0,64,30.15,10.0,SSE,9.2,-,N/A,,Overcast,150,2013-09-18 17:53:00
1:53 PM,79.0,66.0,64,30.13,10.0,SE,6.9,-,N/A,,Mostly Cloudy,130,2013-09-18 18:53:00
2:53 PM,80.1,66.0,62,30.11,10.0,ESE,6.9,-,N/A,,Overcast,120,2013-09-18 19:53:00
3:53 PM,81.0,66.0,60,30.10,10.0,ESE,3.5,-,N/A,,Mostly Cloudy,110,2013-09-18 20:53:00
4:53 PM,81.0,66.9,62,30.09,10.0,SSE,3.5,-,N/A,,Clear,150,2013-09-18 21:53:00
5:53 PM,79.0,66.0,64,30.08,9.0,ESE,4.6,-,N/A,,Clear,120,2013-09-18 22:53:00
6:53 PM,75.0,66.9,76,30.08,8.0,East,3.5,-,N/A,,Clear,100,2013-09-18 23:53:00
7:53 PM,73.9,66.0,76,30.10,9.0,ESE,3.5,-,N/A,,Clear,110,2013-09-19 00:53:00
8:53 PM,73.0,66.0,79,30.11,9.0,ESE,4.6,-,N/A,,Clear,110,2013-09-19 01:53:00
9:53 PM,71.1,64.9,81,30.11,9.0,ESE,3.5,-,N/A,,Clear,110,2013-09-19 02:53:00
10:53 PM,70.0,64.9,84,30.11,9.0,ESE,4.6,-,N/A,,Clear,120,2013-09-19 03:53:00
11:53 PM,70.0,64.9,84,30.11,9.0,SE,6.9,-,N/A,,Clear,130,2013-09-19 04:53:00